SCOUT B DEB, 29174

Orbit data source: Space-Track

SCOUT B DEB, 29174 is space debris in LEO originally from a launch on Tue, 10 Aug 1965 UTC launched from the Wallops Island (WLPIS). Debris objects in space refer to the collection of defunct objects orbiting the Earth. Examples of debris include non-operational satellites, rocket bodies, and fragments generated from explosions, collisions, or faulty payload assembly.

Loading next visibility...
Identifier
29174, 1965-063Y
Orbit
LEO
Country
Flag of USUS
Related business
Manufacturer
Unknown
Mission
Spacecraft
Bus & Motor
Unknown
Mass
Unknown
Launch date (UTC)
1965-08-10 (60 years ago)
Launch vehicle
Unknown
Launch site
Wallops Island (WLPIS)
Object type
Payload
Rocket body
Debris
Shape & HBR
Unknown shape, 0.1 m
Radar Cross Section
Small (<0.1 m²)

Expand to show TLE details & history
Last TLE update: 3 months ago

TLE from 3 months ago
0 SCOUT B DEB
1 29174U 65063Y   25204.87547565  .00000036  00000-0  46677-3 0  9995
2 29174  69.2717 283.5078 0662078 107.2191 260.2334 11.96491823 30580
Epoch: 2025-07-23T21:00Z
TLE epoch observation values (Epoch: 2025-07-23T21:00:41.096Z)
Latitude
-0.00003°
Longitude
26.48766°
Altitude
1,823.085 km
Speed
6.919 km/s
True Right ascension
18h 54m 01s
True Declination
0° 00' 00"
Sunlit
Object was in full shadow at epoch
Visualization orbit readout
Latitude
Unknown
Longitude
Unknown
Altitude
Unknown
Speed
Unknown
Apparent Right ascension
Unknown
Apparent Declination
Unknown
Sunlit
N/A
Visualization observer readout
Local Sidereal Time
18:20:09
Azimuth
Unknown
Elevation
Unknown
Doppler factor
Unknown
Orbital elements
Apogee altitude
2,229.395 km
Perigee altitude
1,160.399 km
Semi-major axis
8,073.034 km
Eccentricity
0.06621
Inclination
69.2717°
RAAN
283.5078°
Arg. of periapsis
107.2191°
True anomaly
252.88027°
Mean anomaly
260.2334°
Eccentric anomaly
256.5441°
Mean motion
2.99218 °/min
Orbital period
120.31 mins
BSTAR
0.00046677
Loading maneuver chart data...
Computing Atmospheric mass density...
Loading historical data...
Loading historical data...
Loading historical data...
Loading historical data...
Loading historical data...
Loading historical data...
Loading historical data...

Documentation

Showing up to 5 results
|